DW9012 Weather Reports


Display with metric or nautical units.
time (UTC)temp
F
wind
direction
speed
MPH
gust
MPH
rain 1hr
in
rain 24hr
in
rain mn
in
humidity
%
barometer
mb
20260505211515 50 165 6.0 12.0 0.00 0.00 0.00 59 996.2
20260505210014 52 122 5.0 9.0 0.00 0.00 0.00 51 995.8
20260505204514 53 150 2.0 10.0 0.00 0.00 0.00 49 995.7
20260505203012 54 144 3.0 19.0 0.00 0.00 0.00 49 995.6
20260505201510 52 138 8.0 17.0 0.00 0.00 0.00 50 995.6
20260505200020 51 78 5.0 15.0 0.00 0.00 0.00 52 995.9
20260505194506 49 138 4.0 10.0 0.00 0.00 0.00 58 996.1
20260505193006 48 56 4.0 13.0 0.00 0.00 0.00 58 996.6
20260505191505 48 124 7.0 13.0 0.00 0.00 0.00 58 996.4
20260505190003 47 115 7.0 15.0 0.00 0.00 0.00 58 996.5
20260505184502 49 149 5.0 13.0 0.00 0.00 0.00 63 996.6
20260505183001 51 145 7.0 14.0 0.00 0.00 0.00 62 996.8
20260505181601 51 167 6.0 11.0 0.00 0.00 0.00 59 996.9
20260505174559 50 110 5.0 9.0 0.00 0.00 0.00 57 997.3
20260505173054 49 145 5.0 8.0 0.00 0.00 0.00 54 997.5
20260505171554 47 155 3.0 8.0 0.00 0.00 0.00 58 998.0
20260505170053 47 103 7.0 11.0 0.00 0.00 0.00 60 997.4
20260505164600 48 140 5.0 10.0 0.00 0.00 0.00 59 998.0
20260505163056 49 155 4.0 10.0 0.00 0.00 0.00 58 997.9
20260505161550 51 142 3.0 8.0 0.00 0.00 0.00 52 998.0
20260505153105 51 171 6.0 11.0 0.00 0.00 0.00 54 998.2
20260505151555 52 160 5.0 9.0 0.00 0.00 0.00 51 998.2
20260505124528 43 207 5.0 10.0 0.00 0.00 0.00 73 1000.3
20260505123025 43 216 6.0 11.0 0.00 0.00 0.00 72 1000.4
20260505121525 44 200 4.0 11.0 0.00 0.00 0.00 71 1000.2
20260505120023 45 217 4.0 8.0 0.00 0.00 0.00 67 1000.2
20260505114532 45 250 2.0 5.0 0.00 0.00 0.00 66 1000.3
20260505113017 44 296 1.0 3.0 0.00 0.00 0.00 72 1000.4
20260505111514 42 296 1.0 3.0 0.00 0.00 0.00 74 1000.5
20260505101510 40 67 0.0 3.0 0.00 0.00 0.00 78 1000.2
20260505100012 40 327 1.0 6.0 0.00 0.00 0.00 78 1000.0
20260505094509 38 19 4.0 9.0 0.00 0.00 0.00 82 1000.2
20260505093008 38 293 2.0 5.0 0.00 0.00 0.00 81 1000.0
20260505091507 38 302 1.0 5.0 0.00 0.00 0.00 79 999.9
20260505090007 38 323 1.0 5.0 0.00 0.00 0.00 81 999.5
20260505084506 38 336 2.0 4.0 0.00 0.00 0.00 82 999.4
20260505083005 39 304 3.0 8.0 0.00 0.00 0.00 82 999.6
20260505081502 39 300 7.0 13.0 0.00 0.00 0.00 79 1000.0
20260505080059 40 259 7.0 15.0 0.00 0.00 0.00 79 999.6
20260505074610 40 247 5.0 14.0 0.00 0.00 0.00 78 999.4
20260505073055 40 281 8.0 15.0 0.00 0.00 0.00 76 999.2
20260505071551 40 309 10.0 17.0 0.00 0.00 0.00 77 999.1
20260505070048 40 298 10.0 18.0 0.00 0.00 0.00 77 998.8
20260505064546 40 271 7.0 15.0 0.00 0.00 0.00 77 998.9
20260505063045 40 282 7.0 13.0 0.00 0.00 0.00 77 998.8
20260505061609 41 265 7.0 13.0 0.00 0.00 0.00 76 998.8
20260505060046 40 275 8.0 14.0 0.00 0.00 0.00 77 998.6
20260505054554 40 250 7.0 15.0 0.00 0.00 0.00 77 998.4
20260505053037 41 286 6.0 12.0 0.00 0.00 0.00 76 998.3
20260505051536 41 275 7.0 14.0 0.00 0.00 0.00 76 998.3
20260505041526 42 287 6.0 13.0 0.00 0.02 0.00 78 998.0
20260505040023 42 282 3.0 7.0 0.00 0.02 0.00 76 997.9
20260505034522 42 292 4.0 9.0 0.00 0.04 0.02 77 997.7
20260505033032 42 281 4.0 9.0 0.00 0.04 0.02 79 997.7
20260505031521 42 277 4.0 9.0 0.00 0.04 0.02 80 997.8
20260505030021 42 272 3.0 9.0 0.00 0.04 0.02 78 997.7
20260505024545 43 293 3.0 9.0 0.00 0.07 0.02 77 997.7
20260505023020 43 284 4.0 11.0 0.00 0.07 0.02 77 997.6
20260505021538 43 307 4.0 13.0 0.00 0.07 0.02 77 997.5
20260505020019 43 288 3.0 10.0 0.00 0.07 0.02 79 997.3
20260505014523 43 283 4.0 10.0 0.00 0.09 0.02 78 997.3
20260505013018 44 286 4.0 10.0 0.00 0.09 0.02 75 997.2
20260505011519 46 323 6.0 12.0 0.00 0.09 0.02 72 997.1
20260505010018 46 297 4.0 9.0 0.00 0.09 0.02 73 997.1
20260505004527 47 298 3.0 9.0 0.00 0.11 0.02 70 997.1
20260505003016 48 288 4.0 10.0 0.00 0.11 0.02 66 996.9
20260505001515 49 333 6.0 12.0 0.00 0.11 0.02 65 996.6
20260505000016 50 310 6.0 14.0 0.00 0.11 0.02 65 996.4
20260504234518 50 360 8.0 13.0 0.00 0.14 0.02 66 996.2
20260504233014 50 325 3.0 9.0 0.00 0.14 0.02 68 996.0
20260504231514 50 338 3.0 7.0 0.00 0.14 0.02 68 996.0
20260504230014 51 338 3.0 7.0 0.00 0.14 0.02 66 995.7
20260504224513 51 327 4.0 12.0 0.00 0.18 0.02 66 995.5
20260504223013 50 303 5.0 9.0 0.00 0.18 0.02 65 995.3
20260504221512 50 342 7.0 16.0 0.00 0.18 0.02 65 995.1
20260504220015 52 313 6.0 13.0 0.00 0.18 0.02 60 994.9
20260504214510 52 340 7.0 18.0 0.00 0.24 0.02 62 994.9
20260504213010 52 333 7.0 13.0 0.00 0.24 0.02 59 994.6